Location: Holmbach
(49.5093°N, 8.8411°E)
Time: 15:54:31
(UTC+00:00)

OPS 8737 - Pass Details

Date: 17 June 2025
Orbit: 378 x 1360 km, 63.3° (Epoch: 19 July)

Event Time Altitude Azimuth Distance (km) Brightness Sun altitude
Rises 23:37:39 0° 314° (NW) 2,296 8.6 -17.0°
Reaches altitude 10° 23:39:43 10° 309° (NW) 1,406 7.4 -17.0°
Maximum altitude 23:42:39 50° 232° (SW) 496 4.3 -17.0°
Enters shadow 23:42:43 50° 226° (SW) 497 4.3 -17.0°
